Regional Weather Roundup
Issued by NWS New Orleans/Baton Rouge, LA

Home | Current Version | Previous Version | Graphics & Text | Print | Product List | Glossary On
Versions: 1 2 3 4 5 6 7 8 9 10 11 12 13 14 15 16 17 18 19 20 21 22 23 24 25 26 27 28 29 30 31 32 33 34 35 36 37 38 39 40 41 42 43 44 45 46 47 48 49 50
778
ASUS44 KLIX 311705
RWRLIX
NEW ORLEANS REGIONAL WEATHER ROUNDUP
NATIONAL WEATHER SERVICE NEW ORLEANS LA
1200 PM CDT THU JUL 31 2014

NOTE: "FAIR" INDICATES FEW OR NO CLOUDS BELOW 12,000 FEET WITH NO
      SIGNIFICANT WEATHER AND/OR OBSTRUCTIONS TO VISIBILITY.
      SKY/WX - SKY CONDITION AND SIGNIFICANT WEATHER.
      TMP - AIR TEMPERATURE.     DP    - DEWPOINT TEMPERATURE.
      RH  - RELATIVE HUMIDITY.   PRES  - PRESSURE.
      HI  - HEAT INDEX.          WCI   - WIND CHILL INDEX.

*  THESE STATIONS ARE NOT NWS OR FAA STATIONS AND ARE NOT UNDER
   NWS QUALITY CONTROL.

LAZ038-040-048-061>063-065>067-069-311800-
SOUTHEAST LOUISIANA

CITY           SKY/WX    TMP DP  RH WIND       PRES   REMARKS
N.O. AUDUBON     N/A     92  66  42 MISG        N/A  HX  95
N.O. INTL ARPT PTSUNNY   89  66  46 E6        30.04S
N.O. LAKEFRONT MOSUNNY   85  65  51 NE8       30.05S
N.O. DOWNTOWN* CLOUDY    88  63  42 NE8       30.05S
SLIDELL        MOSUNNY   85  62  46 VRB3      30.05S
BATON ROUGE    MOSUNNY   84  66  54 E3        30.05F
BOOTHVILLE     MOSUNNY   85  66  53 VRB3      30.05R
BELLE CHASSE   CLOUDY    86  64  47 CALM      30.04S
BOGALUSA*        N/A     82  64  54 CALM      30.07F
GALLIANO*      NOT AVBL
NEW ROADS*       N/A     83  65  53 SE3       30.05S
GONZALES*        N/A     82  71  68 NE3       30.04F
HAMMOND*       PTSUNNY   86  64  48 CALM      30.07F
HOUMA*         PTSUNNY   88  64  45 E5        30.04S
PORT FOURCHON* MOSUNNY   84  64  51 E8        30.06R

$$

MSZ070-080>082-311800-
SOUTHERN MISSISSIPPI

CITY           SKY/WX    TMP DP  RH WIND       PRES   REMARKS
MCCOMB         CLOUDY    78  62  57 SE5       30.07F
GULFPORT       SUNNY     88  56  33 N8        30.04S
BILOXI         SUNNY     85  59  41 N8        30.05S
PASCAGOULA     SUNNY     84  62  47 NW7       30.04F
STENNIS ARPT*  MOSUNNY  N/A N/A N/A VRB5      30.05S

$$

COASTAL OBSERVATIONS
LAKE AND NEARSHORE STATIONS

STATION/POSITION TIME  TEMP    WIND        PRES    WAVE
                       AIR SEA DIR/SP/G            HT/PER
                 (UTC) (F)     (DEG/KT/KT) (MB)    (FT/S)
PASCAGOULA       1700   84     210/  3/  4 1016.7
WAVELAND YACHT   1700   82      40/  1/  3 1017.0
GRAND ISLE       1700   85 86   90/  4/  7 1018.1
SOUTHWEST PASS   1700   89 85   80/  6/  7 1017.5
NEW CANAL        1700   81 83   40/  8/ 10 1018.0
SHELL BEACH      1700   81 81   20/  5/  8 1017.4

OFFSHORE STATIONS

STATION/POSITION TIME  TEMP    WIND        PRES    WAVE
                       AIR SEA DIR/SP/G            HT/PER
                 (UTC) (F)     (DEG/KT/KT) (MB)    (FT/S)
64 S DAUPHIN ISL 1625   82 86   20/  8/ 10 1017.0

$$




USA.gov is the U.S. government's official web portal to all federal, state and local government web resources and services.